P/2012 B1 ( PanSTARRS )

Japanese version
Home page
Updated on October 12, 2014

---------------------------------------------------------------------

* Profile

Discovery Date January 25, 2012
Magnitude 19.7 mag
Discoverer Pan-STARRS 1 telescope (Haleakala)

* Pictures

* Orbital Elements

Epoch 2013 July 7.0 TT = JDT 2456480.5
T 2013 July 23.11088 TT                                 MPC
q   3.8251541            (2000.0)            P               Q
n   0.05958138     Peri.  162.17683     -0.94742173     +0.31023869
a   6.4922566      Node    36.19684     -0.30736703     -0.81421135
e   0.4108129      Incl.    7.62724     -0.08898076     -0.49072583
P  16.5
From 1127 observations 1997 June 1-2014 Oct. 3, mean residual 0".5.

* Finding Charts

* Magnitudes Graph

        m1 = 3.0 + 5 log d + 17.0 log r(t - 100)

---------------------------------------------------------------------

The orbital elements are published on M.P.E.C. 2014-T44.
The charts are made with StellaNavigator Ver.8 (AstroArts).
The magnitudes graphs are made with Comet for Windows.

---------------------------------------------------------------------

Copyright(C) Seiichi Yoshida (comet@aerith.net). All rights reserved.